Time,TemperatureF,DewpointF,PressureIn,WindDirection,WindDirectionDegrees,WindSpeedMPH,WindSpeedGustMPH,Humidity,HourlyPrecipIn,Conditions,Clouds,dailyrainin,SoftwareType,DateUTC
2013-12-20 00:11:00,50.2,-46.8,30.06,SSE,157,6.3,-999.0,1,-99.99,,,0.00,Acu-Link.com,2013-12-20 05:11:00,
2013-12-20 00:26:00,50.2,-46.8,30.04,WNW,292,7.8,-999.0,1,-99.99,,,0.00,Acu-Link.com,2013-12-20 05:26:00,
2013-12-20 00:41:00,50.2,-46.8,30.04,SW,225,6.8,-999.0,1,-99.99,,,0.00,Acu-Link.com,2013-12-20 05:41:00,
2013-12-20 00:56:00,50.2,-46.8,30.04,WNW,292,4.2,-999.0,1,-99.99,,,0.00,Acu-Link.com,2013-12-20 05:56:00,
2013-12-20 01:12:00,50.5,39.6,30.05,WNW,292,4.7,-999.0,66,-99.99,,,0.00,Acu-Link.com,2013-12-20 06:12:00,
2013-12-20 01:27:00,50.4,49.9,30.05,SSW,202,7.8,-999.0,98,-99.99,,,0.00,Acu-Link.com,2013-12-20 06:27:00,
2013-12-20 01:42:00,49.8,-47.1,30.05,WNW,292,5.3,-999.0,1,-99.99,,,0.00,Acu-Link.com,2013-12-20 06:42:00,
2013-12-20 01:57:00,50.0,-46.9,30.05,West,270,4.2,-999.0,1,-99.99,,,0.00,Acu-Link.com,2013-12-20 06:57:00,
2013-12-20 02:12:00,49.8,-47.1,30.05,West,270,4.7,-999.0,1,-99.99,,,0.00,Acu-Link.com,2013-12-20 07:12:00,
2013-12-20 02:27:00,49.1,-47.5,30.05,West,270,5.3,-999.0,1,-99.99,,,0.00,Acu-Link.com,2013-12-20 07:27:00,
2013-12-20 02:43:00,49.5,-47.3,30.05,West,270,4.2,-999.0,1,-99.99,,,0.00,Acu-Link.com,2013-12-20 07:43:00,
2013-12-20 02:58:00,49.1,-47.5,30.06,West,270,4.2,-999.0,1,-99.99,,,0.00,Acu-Link.com,2013-12-20 07:58:00,
2013-12-20 03:13:00,48.7,-47.7,30.06,West,270,4.2,-999.0,1,-99.99,,,0.00,Acu-Link.com,2013-12-20 08:13:00,
2013-12-20 03:28:00,48.6,-47.8,30.06,WNW,292,8.3,-999.0,1,-99.99,,,0.00,Acu-Link.com,2013-12-20 08:28:00,
2013-12-20 03:44:00,48.2,-48.1,30.05,WNW,292,7.3,-999.0,1,-99.99,,,0.00,Acu-Link.com,2013-12-20 08:44:00,
2013-12-20 03:59:00,48.6,-47.8,30.06,WNW,292,3.7,-999.0,1,-99.99,,,0.00,Acu-Link.com,2013-12-20 08:59:00,
2013-12-20 04:14:00,48.7,-47.7,30.06,West,270,3.2,-999.0,1,-99.99,,,0.00,Acu-Link.com,2013-12-20 09:14:00,
2013-12-20 04:29:00,48.9,-47.6,30.05,West,270,4.7,-999.0,1,-99.99,,,0.00,Acu-Link.com,2013-12-20 09:29:00,
2013-12-20 04:44:00,48.7,-47.7,30.05,South,180,8.3,-999.0,1,-99.99,,,0.00,Acu-Link.com,2013-12-20 09:44:00,
2013-12-20 05:00:00,48.4,-47.9,30.05,SSW,202,4.7,-999.0,1,-99.99,,,0.00,Acu-Link.com,2013-12-20 10:00:00,
2013-12-20 05:15:00,48.4,-47.9,30.05,SSW,202,5.8,-999.0,1,-99.99,,,0.00,Acu-Link.com,2013-12-20 10:15:00,
2013-12-20 05:30:00,48.4,-47.9,30.06,SSW,202,4.7,-999.0,1,-99.99,,,0.00,Acu-Link.com,2013-12-20 10:30:00,
2013-12-20 05:45:00,48.2,-48.1,30.06,WSW,247,6.3,-999.0,1,-99.99,,,0.00,Acu-Link.com,2013-12-20 10:45:00,
2013-12-20 06:01:00,47.8,-48.3,30.05,SSW,202,5.8,-999.0,1,-99.99,,,0.00,Acu-Link.com,2013-12-20 11:01:00,
2013-12-20 06:16:00,47.7,-48.4,30.05,SSW,202,3.7,-999.0,1,-99.99,,,0.00,Acu-Link.com,2013-12-20 11:16:00,
2013-12-20 06:31:00,47.3,-48.6,30.05,SSW,202,5.3,-999.0,1,-99.99,,,0.00,Acu-Link.com,2013-12-20 11:31:00,
2013-12-20 06:46:00,47.1,-48.7,30.05,South,180,6.3,-999.0,1,-99.99,,,0.00,Acu-Link.com,2013-12-20 11:46:00,
2013-12-20 07:02:00,47.5,-48.5,30.06,WSW,247,5.8,-999.0,1,-99.99,,,0.00,Acu-Link.com,2013-12-20 12:02:00,
2013-12-20 07:17:00,47.5,-48.5,30.06,West,270,6.3,-999.0,1,-99.99,,,0.00,Acu-Link.com,2013-12-20 12:17:00,
2013-12-20 07:32:00,47.5,-48.5,30.06,West,270,10.9,-999.0,1,-99.99,,,0.00,Acu-Link.com,2013-12-20 12:32:00,
2013-12-20 07:47:00,48.0,-48.2,30.06,West,270,4.7,-999.0,1,-99.99,,,0.00,Acu-Link.com,2013-12-20 12:47:00,
2013-12-20 08:03:00,48.0,-48.2,30.06,SSW,202,7.8,-999.0,1,-99.99,,,0.00,Acu-Link.com,2013-12-20 13:03:00,
2013-12-20 08:18:00,48.7,-47.7,30.06,West,270,6.8,-999.0,1,-99.99,,,0.00,Acu-Link.com,2013-12-20 13:18:00,
2013-12-20 08:33:00,50.0,-46.9,30.06,WNW,292,7.8,-999.0,1,-99.99,,,0.00,Acu-Link.com,2013-12-20 13:33:00,
2013-12-20 08:48:00,50.5,-46.6,30.05,West,270,5.8,-999.0,1,-99.99,,,0.00,Acu-Link.com,2013-12-20 13:48:00,
2013-12-20 09:03:00,52.0,-45.7,30.05,West,270,9.9,-999.0,1,-99.99,,,0.00,Acu-Link.com,2013-12-20 14:03:00,
2013-12-20 09:18:00,52.5,-45.4,30.06,WSW,247,6.3,-999.0,1,-99.99,,,0.00,Acu-Link.com,2013-12-20 14:18:00,
2013-12-20 09:34:00,53.1,-45.1,30.05,West,270,11.9,-999.0,1,-99.99,,,0.00,Acu-Link.com,2013-12-20 14:34:00,
2013-12-20 09:49:00,53.2,-45.0,30.06,West,270,7.3,-999.0,1,-99.99,,,0.00,Acu-Link.com,2013-12-20 14:49:00,
2013-12-20 10:04:00,54.1,-44.4,30.05,West,270,9.9,-999.0,1,-99.99,,,0.00,Acu-Link.com,2013-12-20 15:04:00,
2013-12-20 10:19:00,54.9,-44.0,30.05,NW,315,7.3,-999.0,1,-99.99,,,0.00,Acu-Link.com,2013-12-20 15:19:00,
2013-12-20 10:34:00,55.8,-43.4,30.05,West,270,7.8,-999.0,1,-99.99,,,0.00,Acu-Link.com,2013-12-20 15:34:00,
2013-12-20 10:49:00,55.9,-43.3,30.04,West,270,9.4,-999.0,1,-99.99,,,0.00,Acu-Link.com,2013-12-20 15:49:00,
2013-12-20 11:05:00,56.3,-43.1,30.03,WSW,247,5.3,-999.0,1,-99.99,,,0.00,Acu-Link.com,2013-12-20 16:05:00,
2013-12-20 11:20:00,56.5,-43.0,30.02,SW,225,7.3,-999.0,1,-99.99,,,0.00,Acu-Link.com,2013-12-20 16:20:00,
2013-12-20 11:35:00,57.4,-42.4,30.02,WNW,292,11.4,-999.0,1,-99.99,,,0.00,Acu-Link.com,2013-12-20 16:35:00,
2013-12-20 11:50:00,56.8,-42.8,30.02,West,270,11.4,-999.0,1,-99.99,,,0.00,Acu-Link.com,2013-12-20 16:50:00,
2013-12-20 12:05:00,57.0,-42.7,30.01,WNW,292,8.3,-999.0,1,-99.99,,,0.00,Acu-Link.com,2013-12-20 17:05:00,
2013-12-20 12:20:00,56.8,-42.8,30.01,West,270,10.4,-999.0,1,-99.99,,,0.00,Acu-Link.com,2013-12-20 17:20:00,
2013-12-20 12:35:00,57.0,-42.7,29.98,WNW,292,9.4,-999.0,1,-99.99,,,0.00,Acu-Link.com,2013-12-20 17:35:00,
2013-12-20 12:50:00,58.3,-41.9,29.99,WNW,292,5.8,-999.0,1,-99.99,,,0.00,Acu-Link.com,2013-12-20 17:50:00,
2013-12-20 13:06:00,60.1,-40.8,29.99,West,270,6.8,-999.0,1,-99.99,,,0.00,Acu-Link.com,2013-12-20 18:06:00,
2013-12-20 13:21:00,59.2,-41.3,29.99,WNW,292,5.8,-999.0,1,-99.99,,,0.00,Acu-Link.com,2013-12-20 18:21:00,
2013-12-20 13:36:00,59.2,-41.3,29.98,NW,315,8.3,-999.0,1,-99.99,,,0.00,Acu-Link.com,2013-12-20 18:36:00,
2013-12-20 13:51:00,59.2,-41.3,29.98,SSW,202,11.4,-999.0,1,-99.99,,,0.00,Acu-Link.com,2013-12-20 18:51:00,
2013-12-20 14:07:00,59.4,-41.2,29.97,South,180,10.4,-999.0,1,-99.99,,,0.00,Acu-Link.com,2013-12-20 19:07:00,
2013-12-20 14:22:00,58.3,-41.9,29.96,South,180,11.4,-999.0,1,-99.99,,,0.00,Acu-Link.com,2013-12-20 19:22:00,
2013-12-20 14:37:00,57.9,-42.1,29.96,SE,135,10.9,-999.0,1,-99.99,,,0.00,Acu-Link.com,2013-12-20 19:37:00,
2013-12-20 14:52:00,58.5,-41.8,29.96,WNW,292,10.4,-999.0,1,-99.99,,,0.00,Acu-Link.com,2013-12-20 19:52:00,
2013-12-20 15:07:00,58.6,-41.7,29.95,WNW,292,8.9,-999.0,1,-99.99,,,0.00,Acu-Link.com,2013-12-20 20:07:00,
2013-12-20 15:23:00,58.5,-41.8,29.95,NW,315,14.5,-999.0,1,-99.99,,,0.00,Acu-Link.com,2013-12-20 20:23:00,
2013-12-20 15:38:00,58.3,-41.9,29.95,West,270,4.7,-999.0,1,-99.99,,,0.00,Acu-Link.com,2013-12-20 20:38:00,
2013-12-20 15:53:00,58.3,57.7,29.96,NW,315,3.7,-999.0,98,-99.99,,,0.00,Acu-Link.com,2013-12-20 20:53:00,
2013-12-20 16:08:00,57.9,38.9,29.95,West,270,6.3,-999.0,49,-99.99,,,0.00,Acu-Link.com,2013-12-20 21:08:00,
2013-12-20 16:23:00,57.7,-42.3,29.96,WNW,292,6.8,-999.0,1,-99.99,,,0.00,Acu-Link.com,2013-12-20 21:23:00,
2013-12-20 16:38:00,57.4,-42.4,29.97,WNW,292,8.9,-999.0,1,-99.99,,,0.00,Acu-Link.com,2013-12-20 21:38:00,
2013-12-20 16:53:00,57.4,-42.4,29.98,WNW,292,8.3,-999.0,1,-99.99,,,0.00,Acu-Link.com,2013-12-20 21:53:00,
2013-12-20 17:09:00,57.4,-42.4,29.97,NW,315,5.8,-999.0,1,-99.99,,,0.00,Acu-Link.com,2013-12-20 22:09:00,
2013-12-20 17:24:00,57.0,-42.7,29.97,WNW,292,3.2,-999.0,1,-99.99,,,0.00,Acu-Link.com,2013-12-20 22:24:00,
2013-12-20 17:39:00,55.9,-43.3,29.98,East,90,2.7,-999.0,1,-99.99,,,0.00,Acu-Link.com,2013-12-20 22:39:00,
2013-12-20 17:54:00,54.9,-44.0,29.99,East,90,1.7,-999.0,1,-99.99,,,0.00,Acu-Link.com,2013-12-20 22:54:00,
2013-12-20 18:09:00,53.6,-44.7,29.98,East,90,0.0,-999.0,1,-99.99,,,0.00,Acu-Link.com,2013-12-20 23:09:00,
2013-12-20 18:25:00,52.5,25.7,29.99,East,90,0.0,-999.0,35,-99.99,,,0.00,Acu-Link.com,2013-12-20 23:25:00,
2013-12-20 18:40:00,52.7,36.5,29.99,East,90,2.7,-999.0,54,-99.99,,,0.00,Acu-Link.com,2013-12-20 23:40:00,
2013-12-20 18:55:00,52.7,51.3,29.98,East,90,2.2,-999.0,95,-99.99,,,0.00,Acu-Link.com,2013-12-20 23:55:00,
2013-12-20 19:11:00,52.9,52.4,29.99,ESE,112,2.2,-999.0,98,-99.99,,,0.00,Acu-Link.com,2013-12-21 00:11:00,
2013-12-20 19:26:00,52.7,52.2,29.98,ESE,112,3.2,-999.0,98,-99.99,,,0.00,Acu-Link.com,2013-12-21 00:26:00,
2013-12-20 19:41:00,52.5,52.0,29.98,West,270,3.2,-999.0,98,-99.99,,,0.00,Acu-Link.com,2013-12-21 00:41:00,
2013-12-20 19:56:00,52.0,51.5,29.97,WNW,292,2.7,-999.0,98,-99.99,,,0.00,Acu-Link.com,2013-12-21 00:56:00,
2013-12-20 20:11:00,52.5,52.0,29.99,WNW,292,4.7,-999.0,98,-99.99,,,0.00,Acu-Link.com,2013-12-21 01:11:00,
2013-12-20 20:27:00,52.3,51.8,29.98,WNW,292,3.2,-999.0,98,-99.99,,,0.00,Acu-Link.com,2013-12-21 01:27:00,
2013-12-20 20:42:00,52.5,52.0,29.97,NW,315,3.7,-999.0,98,-99.99,,,0.00,Acu-Link.com,2013-12-21 01:42:00,
2013-12-20 20:57:00,53.6,53.0,29.98,WNW,292,5.3,-999.0,98,-99.99,,,0.00,Acu-Link.com,2013-12-21 01:57:00,
2013-12-20 21:13:00,53.4,52.8,29.98,West,270,5.8,-999.0,98,-99.99,,,0.00,Acu-Link.com,2013-12-21 02:13:00,
2013-12-20 21:28:00,53.6,53.0,29.98,East,90,5.8,-999.0,98,-99.99,,,0.00,Acu-Link.com,2013-12-21 02:28:00,
2013-12-20 21:44:00,53.6,53.0,29.96,SSE,157,8.3,-999.0,98,-99.99,,,0.00,Acu-Link.com,2013-12-21 02:44:00,
2013-12-20 21:59:00,54.3,53.7,29.98,South,180,5.8,-999.0,98,-99.99,,,0.00,Acu-Link.com,2013-12-21 02:59:00,
2013-12-20 22:14:00,54.7,54.1,29.97,South,180,4.2,-999.0,98,-99.99,,,0.00,Acu-Link.com,2013-12-21 03:14:00,
2013-12-20 22:29:00,55.4,54.8,29.97,South,180,4.7,-999.0,98,-99.99,,,0.00,Acu-Link.com,2013-12-21 03:29:00,
2013-12-20 22:44:00,57.2,56.4,29.97,South,180,5.8,-999.0,97,-99.99,,,0.00,Acu-Link.com,2013-12-21 03:44:00,
2013-12-20 22:59:00,58.5,-41.8,29.96,SSW,202,7.3,-999.0,1,-99.99,,,0.00,Acu-Link.com,2013-12-21 03:59:00,
2013-12-20 23:14:00,60.1,-40.8,29.97,West,270,10.4,-999.0,1,-99.99,,,0.00,Acu-Link.com,2013-12-21 04:14:00,
2013-12-20 23:29:00,60.3,-40.7,29.96,NW,315,6.8,-999.0,1,-99.99,,,0.00,Acu-Link.com,2013-12-21 04:29:00,
2013-12-20 23:45:00,61.0,-40.2,29.96,NW,315,7.8,-999.0,1,-99.99,,,0.00,Acu-Link.com,2013-12-21 04:45:00,